www.pogodaiklimat.ru

Погода и климат >> Архив погоды >> Китай >> Тайвань >> Ланьюй


ПОГОДА в Ланьюе

  • Прогноз погоды в Ланьюе
  • Монитор погоды в Ланьюе

АРХИВ ПОГОДЫ в Ланьюе

Время (UTC), дата Ветер
(напр.,м/с)
 
Видим.   Явления Облачность Т
(С)
Тd
(С)
f
(%)
Тe
(С)
Тes
(С)
Комфортность P
(гПа)
Po
(гПа)
Тmin
(С)
Tmax
(С)
R
(мм)
R24
(мм)
S
(см)
09 12.02 СВ 3 20 км в посл. час дождь 9/9 300 м
[Sc diur, vesp]
+20.9 +20.9 100 +27 +27 душно 1022.9 985.0 8
12 12.02 В 4 10 км {дождь} 8/8 600 м
[Sc diur, vesp]
+21.2 +21.2 100 +27 +27 душно 1023.6 985.7 8
18 12.02 ЮВ 3 н/о н/о +21.5 +21.3 99 +27 +27 душно 1022.5 984.7
21 12.02 ЮВ 3 15 км 3/3 600 м
[Cu hum]
+21.3 +21.3 100 +27 +27 душно 1021.6 983.8
00 13.02 СВ 4 15 км {дождь} 6/6 600 м
[Sc diur, vesp]
+21.6 +21.6 100 +28 +29 очень
душно
1023.3 985.4 0.5
03 13.02 СВ 5 15 км 8/8 600 м
[Sc diur, vesp]
+22.2 +20.5 90 +29 +30 очень
душно
1022.9 985.1
06 13.02 СВ 6 3000 м слаб. дождь 10/10 50 м
[Frnb]
+20.7 +20.6 99 +25 +25 комфорт 1020.9 983.0 34
09 13.02 СВ 6 15 км {дождь} 10/10 600 м
[St]
+20.0 +18.7 92 +23 +23 комфорт 1021.1 983.1 36
12 13.02 СВ 5 10 км в посл. час дождь 10/10 300 м
[Frnb]
+20.6 +20.6 100 +25 +25 комфорт 1022.4 984.4 43
18 13.02 СВ 5 н/о н/о +20.6 +20.6 100 +25 +25 комфорт 1021.0 983.1
21 13.02 С 1 10 км в посл. час дождь 10/10 300 м
[St]
+20.7 +20.7 100 +27 +27 душно 1020.6 982.7 2
00 14.02 СВ 4 20 км осадки на расстоянии 9/3 300 м
[Sc diur, vesp Ac lent]
+19.8 +19.1 96 +23 +23 комфорт 1022.6 984.5 10
03 14.02 СВ 4 20 км осадки на расстоянии 10/10 600 м
[Sc]
+21.5 +19.2 87 +26 +26 душно 1022.4 984.6
06 14.02 СВ 4 20 км 9/3 600 м
[Sc diur, vesp Ac lent]
+21.7 +19.4 87 +27 +29 душно 1020.5 982.8
09 14.02 В 2 30 км 8/3 600 м
[Sc diur, vesp Ac trans]
+21.9 +20.3 91 +28 +28 душно 1020.5 982.8
12 14.02 СВ 5 20 км 4/4 600 м
[Sc diur, vesp]
+20.9 +20.9 100 +26 +26 душно 1021.9 984.0
18 14.02 В 4 н/о н/о +21.4 +21.2 99 +27 +27 душно 1020.6 982.8
00 15.02 Ю 4 30 км 3/3 600 м
[Cu hum]
+22.7 +18.3 76 +28 +30 душно 1022.0 984.3
03 15.02 Ю 5 30 км 3/3 600 м
[Cu hum]
+25.3 +17.3 61 +29 +35 душно 1021.7 984.4
06 15.02 Ю 4 30 км 3/3 600 м
[Cu hum]
+25.1 +18.1 65 +29 +35 душно 1018.9 981.6
09 15.02 Ю 5 30 км 3/3 600 м
[Cu hum]
+22.9 +18.9 78 +29 +29 очень
душно
1018.5 981.0
12 15.02 Ю 4 20 км 4/4 300 м
[Sc diur, vesp]
+21.8 +19.9 89 +27 +27 душно 1020.4 982.7
18 15.02 Ю 4 н/о н/о +21.4 +20.0 92 +27 +27 душно 1019.7 981.9
21 15.02 ЮВ 4 20 км 3/3 600 м
[Cu hum]
+21.5 +19.7 89 +27 +27 душно 1019.1 981.4
00 16.02 ЮВ 3 30 км 4/1 600 м
[Cu hum Ci sp]
+23.8 +19.5 77 +29 +31 душно 1020.4 982.9
03 16.02 Ю 2 30 км в посл. час дождь 8/6 600 м
[Cu hum Ci sp]
+23.7 +19.5 77 +29 +34 душно 1020.1 982.6 0.0
06 16.02 В 2 30 км осадки на расстоянии 8/8 600 м
[Sc diur, vesp Ci fib]
+24.8 +17.9 65 +29 +31 душно 1017.2 980.0 0.0
09 16.02 СВ 3 30 км осадки на расстоянии 8/4 600 м
[Sc diur, vesp Ci fib]
+22.5 +20.1 86 +29 +29 очень
душно
1017.2 979.7 0.0
12 16.02 СВ 4 20 км в посл. час дождь 9/9 600 м
[Sc diur, vesp]
+21.3 +21.3 100 +27 +27 душно 1018.4 980.7 1
18 16.02 СВ 12 н/о н/о +20.4 +20.4 100 +24 +24 комфорт 1017.3 979.5
21 16.02 СВ 5 3000 м в посл. час дождь 10/10 100 м
[St]
+20.3 +20.3 100 +24 +24 комфорт 1017.3 979.5 0.5
00 17.02 СВ 4 500 м дождь {туман} н/о +19.2 +19.2 100 +21 +21 комфорт 1019.6 981.6 20
03 17.02 С 7 500 м туман {дождь} ?/? +19.9 +19.9 100 +23 +23 комфорт 1019.4 981.5 12
06 17.02 С 5 15 км {дождь, туман} 10/10 300 м
[St]
+20.0 +20.0 100 +23 +23 комфорт 1017.3 979.5 16
09 17.02 С 6 10 км в посл. час дождь 10/10 300 м
[Frnb]
+19.6 +19.6 100 +22 +22 комфорт 1016.9 979.0 17
12 17.02 С 6 10 км слаб. дождь 10/10 300 м
[Frnb]
+19.8 +19.8 100 +23 +23 комфорт 1018.5 980.6 17
18 17.02 С 5 н/о н/о +20.1 +20.1 100 +24 +24 комфорт 1017.5 979.7
21 17.02 СВ 4 15 км {дождь} 6/6 300 м
[Sc diur, vesp]
+19.7 +19.7 100 +23 +23 комфорт 1016.7 978.8 18
00 18.02 СВ 2 30 км осадки на расстоянии 3/3 600 м
[Sc diur, vesp]
+20.9 +19.4 91 +26 +29 душно 1018.7 980.9 18
03 18.02 В 4 30 км 8/8 300 м
[Sc diur, vesp]
+23.5 +19.8 80 +29 +31 душно 1018.1 980.7
06 18.02 Ю 6 20 км осадки на расстоянии 9/9 300 м
[Sc diur, vesp]
+22.7 +21.1 91 +30 +30 очень
душно
1015.7 978.3
09 18.02 Ю 9 20 км {дождь} 9/9 600 м
[Sc diur, vesp]
+22.7 +22.0 96 +31 +31 очень
душно
1015.8 978.4 2
12 18.02 Ю 11 20 км 9/9 600 м
[Sc diur, vesp]
+22.9 +22.3 96 +31 +31 очень
душно
1017.2 979.7 2
18 18.02 ЮЗ 11 н/о н/о +22.7 +22.7 100 +31 +31 очень
душно
1017.2 979.7
21 18.02 ЮЗ 8 20 км 4/4 300 м
[Sc diur, vesp]
+22.1 +22.1 100 +29 +29 очень
душно
1017.2 979.6
00 19.02 З 8 20 км 3/3 600 м
[Cu hum]
+22.8 +21.5 92 +30 +31 очень
душно
1018.9 981.4

 

Местоположение метеостанции Ланьюй (Тайвань, Китай): широта 22.03 долгота 121.55 высота над уровнем моря 325 м.

В архиве по умолчанию представлена погода в Ланьюе за последнюю неделю. Архивные данные за месяц целиком и за предыдущие месяцы, начиная с января 2011 года, Вы можете получить, выбрав интересующий диапазон дат из раскрывающегося списка и нажав кнопку "Ввод!".


*Определитесь, кто Вы:
робот инопланетянин человек

Внимание! Время в таблицах - всемирное. Для получения местного времени необходимо прибавить поправку, которая равна 8 ч.

Смотрите также архив погоды в соседних городах и на ближайших метеорологических станциях:

Погода в Хенгчуне (Тайвань, Китай) (83 км)
Погода в Тайдонге (Тайвань, Китай) (90 км)
Погода в Итбаяте (Филиппины) (140 км)
Погода в Тайнане (Тайвань, Китай) (175 км)
Погода на Баско Радар (Филиппины) (183 км)
Погода в Тайчжуне (Тайвань, Китай) (252 км)
Погода в Калаяне (Филиппины) (307 км)
Погода на Йонагуни (Япония) (310 км)
Погода в Тайбэе (Тайвань, Китай) (334 км)
Погода на Ириомоте (Япония) (350 км)

Пояснения к столбцам:

Ветер - указаны скорость ветра в м/с - средняя за 10 мин, порывы в срок и между сроками (в фигурных скобках) и направление, откуда дует ветер: С - северный, СВ - северо-восточный, В - восточный, ЮВ - юго-восточный, Ю - южный, ЮЗ - юго-западный, З - западный, СЗ - северо-западный.
Видимость - горизонтальная дальность видимости в метрах или километрах. При видимости от 1 до 10 км при отсутствии осадков обычно наблюдается дымка, при ухудшении видимости до 1 км и менее - туман. В сухую погоду видимость может ухудшаться дымом, пылью или мглою.
Явления - указаны атмосферные явления, наблюдавшиеся в срок или в последний час перед сроком; фигурными скобками обозначены явления, наблюдавшиеся между сроками (за 1-3 часа до срока); квадратными скобками обозначены град или гололедные отложения с указанием их диаметра в мм.
Облачность - указаны через наклонную черту общая и нижняя облачность в баллах и высота нижней границы облаков в метрах; квадратными скобками обозначены формы облаков: Ci - перистые, Cs - перисто-слоистые, Cc - перисто-кучевые, Ac - высококучевые, As - высокослоистые, Sc - слоисто-кучевые, Ns - слоисто-дождевые, Cu - кучевые, Cb - кучево-дождевые. Подробнее классификацию облаков см. в Атласе облаков (PDF).
T - Температура воздуха - температура, измеренная на высоте 2 м над землей.
Td - Температура точки росы - температура, при понижении до которой содержащийся в воздухе водяной пар достигнет насыщения.
f - Относительная влажность воздуха - влажноcть воздуха, измеренная на высоте 2 м над землей.
Te - Эффективная температура - температура, которую ощущает одетый по сезону человек в тени. Характеристика душности погоды. При расчете учитывается влияние влажности воздуха и скорости ветра на теплоощущения человека.
Tes - Эффективная температура на солнце - температура, которую ощущает человек, с поправкой на солнечный нагрев. Характеристика знойности погоды. Зависит от высоты солнца над горизонтом, облачности и скорости ветра. Ночью, в пасмурную погоду, а также при ветре 12 м/с и более поправка равна нулю.
P - Атмосферное давление - приведенное к уровню моря атмосферное давление.
Po - Атмосферное давление - измеренное на уровне метеостанции атмосферное давление.
Tmin - Минимальная температура - минимум температуры воздуха на высоте 2 м над землей.
Tmax - Максимальная температура - максимум температуры воздуха на высоте 2 м над землей.
R - Количество осадков - Количество выпавших осадков за период времени, мм. При наведении курсора мыши на число - период времени, за который выпало указанное количество осадков.
R24 - Количество осадков - Количество выпавших осадков за 24 часа, мм.
S - Снежный покров - Высота снежного покрова, см. При наведении курсора мыши на число - состояние снежного покрова и степень покрытия местности в баллах.